sat.trackr.live / text

‹ back to catalog

STARLINK-34766

NORAD 66505 · 2025-263W

PAYLOAD ACTIVE UNKNOWN

§ Identity

Operator
Country
US
Launch date
2025-11-15
Launch site
AFETR
Launch vehicle
Mass (kg)
RCS (m²)

Purposes: comms

External: N2YO · Heavens-Above · Gunter

§ Orbital elements

Epoch: 2026-09-20T11:27:49.683168Z

Period
94.27 min
Inclination
43.0024°
Eccentricity
0.0001262
Mean motion
15.27590327 rev/d
Perigee alt
482.2 km
Apogee alt
483.9 km
Semi-major
6,861.2 km
B*
3.5950e-4
RAAN
330.2546°
Arg perigee
292.7160°
Mean anomaly
67.3559°
Rev number
4,869

§ Raw data

STARLINK-347661 66505U 25263W   26263.47765837  .00009646  00000+0  35950-3 0  99952 66505  43.0024 330.2546 0001262 292.7160  67.3559 15.27590327 48691

JSON: /api/v1/satellites/66505 · /tle

For live sub-satellite position, see the globe view (requires WebGL).

§ Visibility from observer

Set your observer location to see the next 7 days of passes ≥ 10°. The values pass through the URL so the page stays shareable.

No JS? Fill the form by hand. The geolocation button needs JavaScript.